Date,TemperatureHighF,TemperatureAvgF,TemperatureLowF,DewpointHighF,DewpointAvgF,DewpointLowF,HumidityHigh,HumidityAvg,HumidityLow,PressureMaxIn,PressureMinIn,WindSpeedMaxMPH,WindSpeedAvgMPH,GustSpeedMaxMPH,PrecipitationSumIn
2013-8-1,86.6,77.6,70.2,74.0,70.8,67.7,96,81,58,29.93,29.88,9,1,11,0.00
2013-8-2,87.9,75.1,63.8,71.5,67.2,62.0,95,78,48,29.99,29.91,10,0,10,0.00
2013-8-3,84.9,76.6,66.1,75.2,71.1,64.0,95,84,68,29.99,29.93,6,0,9,0.00
2013-8-4,87.4,79.4,69.1,74.9,69.8,64.0,94,74,55,30.02,29.94,8,1,10,0.00
2013-8-5,87.6,74.0,61.1,71.0,65.1,59.0,94,76,44,30.02,29.91,6,0,8,0.00
2013-8-6,86.3,76.3,70.0,76.9,71.1,67.9,95,84,66,29.94,29.89,6,0,10,0.02
2013-8-7,84.2,74.7,71.8,76.9,71.9,69.0,96,91,72,29.97,29.89,12,0,14,0.03
2013-8-8,87.9,75.5,71.8,78.0,72.6,70.3,96,91,70,29.99,29.90,6,1,10,0.14
2013-8-9,90.4,77.8,71.1,80.7,74.3,69.9,97,90,66,30.01,29.92,7,1,10,0.25
2013-8-10,88.4,77.8,71.3,79.0,74.6,70.0,96,90,70,30.06,30.00,6,0,12,0.88
2013-8-11,90.2,80.0,74.4,78.5,74.8,71.4,96,85,62,30.09,29.98,10,1,12,0.00
2013-8-12,90.6,79.0,71.5,78.3,74.1,69.7,96,86,64,30.05,29.91,7,1,17,0.26
2013-8-13,87.9,78.4,71.1,75.4,72.2,69.5,96,82,60,29.94,29.82,8,1,14,0.44
2013-8-14,81.0,72.4,64.0,70.9,66.0,59.1,93,81,56,29.99,29.87,7,0,13,0.00
2013-8-15,78.3,67.3,62.1,69.0,60.4,57.6,89,79,62,30.02,29.96,3,0,7,0.00
2013-8-16,76.3,70.1,63.6,67.0,63.9,61.0,93,81,65,30.05,29.99,7,1,10,0.00
2013-8-17,74.6,69.5,66.8,68.3,65.8,64.7,95,88,74,30.08,30.02,4,0,7,0.04
2013-8-18,77.7,69.7,66.7,72.0,67.3,65.0,96,92,75,30.13,30.05,6,0,8,0.49
2013-8-19,80.8,72.4,68.9,73.5,69.7,67.7,96,91,74,30.10,29.99,7,0,7,0.24
2013-8-20,83.9,74.4,69.0,76.0,71.1,67.8,96,90,70,30.11,30.02,6,0,7,0.04
2013-8-21,80.9,73.7,71.2,74.0,71.6,70.0,96,93,78,30.16,30.05,3,0,8,1.56
2013-8-22,86.7,74.2,70.8,77.0,72.1,69.0,96,93,71,30.12,29.99,4,0,13,0.49
2013-8-23,89.2,73.1,66.5,76.0,69.7,65.0,97,90,59,30.04,29.92,5,0,9,0.05
2013-8-24,87.1,74.2,65.5,75.0,69.3,64.0,96,86,60,30.18,30.01,9,1,11,0.01
2013-8-25,85.2,75.0,65.1,70.3,67.0,63.6,96,78,51,30.30,30.18,7,0,9,0.00
2013-8-26,85.3,73.1,61.7,69.7,65.4,60.0,96,79,53,30.27,30.09,7,0,10,0.00
2013-8-27,88.2,74.5,63.6,73.9,68.0,62.0,95,82,55,30.12,29.98,8,0,9,0.00
2013-8-28,90.1,73.9,66.5,76.0,69.9,65.0,96,88,58,30.02,29.93,7,0,8,0.00
2013-8-29,91.6,79.4,68.7,78.0,73.1,67.0,96,82,58,29.98,29.87,5,0,9,0.00
2013-8-30,88.4,78.0,71.5,78.7,74.0,70.0,96,88,71,29.95,29.86,9,0,9,0.02
2013-8-31,80.4,74.2,72.1,76.0,72.5,71.0,97,94,86,29.91,29.87,7,0,7,0.00